Location: Couloutre
(47.4081°N, 3.2259°E)
Time: 17:01:18
(UTC+00:00)

Cosmos 2082 - Pass Details

Date: 27 February 2020
Orbit: 832 x 857 km, 71.0° (Epoch: 24 March)

Event Time Altitude Azimuth Distance (km) Brightness Sun altitude
Rises 20:03:18 0° 334° (NNW) 3,434 7.5 -26.7°
Reaches altitude 10° 20:05:48 10° 338° (NNW) 2,497 6.6 -27.1°
Enters shadow 20:10:41 55° 22° (NNE) 1,024 4.0 -27.9°
